Miscellaneous Local Product
Issued by NWS Hastings, NE

Home | Current Version | Previous Version | Text Only | Print | Product List | Glossary Off
Versions: 1 2 3 4 5 6 7 8 9 10 11 12 13 14 15 16 17 18 19 20 21 22 23 24 25 26 27 28 29 30 31 32 33 34 35 36 37 38 39 40 41 42 43 44 45 46 47 48 49 50

661
AXUS43 KGID 251402
MISGRI

GID CWA HOURLY WEATHER ROUNDUP
NATIONAL WEATHER SERVICE HASTINGS NE
800 AM CST SAT FEB 25 2017

NOTE: "FAIR" INDICATES FEW OR NO CLOUDS BELOW 12,000 FEET WITH NO
SIGNIFICANT WEATHER AND/OR OBSTRUCTIONS TO VISIBILITY.

...SOUTH CENTRAL NEBRASKA...

CITY           SKY/WX    TMP DP  RH WIND       PRES   REMARKS
GRAND ISLAND   CLOUDY    11   8  88 W7        30.11S WCI   0
HASTINGS       CLOUDY    12   7  80 W7        30.13R WCI   1
KEARNEY        CLOUDY    10   3  72 CALM      30.11R
ORD            CLOUDY     4  -1  80 N3        30.07S
YORK           CLOUDY    10   7  85 W8        30.12S WCI  -1
AURORA         CLOUDY    11   8  86 W3        30.11S
LEXINGTON      CLEAR      7   3  85 W3        30.08S
HOLDREGE       CLEAR     11   6  81 SW3       30.10R
HEBRON         CLOUDY    14  10  84 CALM      30.16R

...NEBRASKA PANHANDLE...

CITY           SKY/WX    TMP DP  RH WIND       PRES   REMARKS
CHADRON        CLEAR      5   1  83 SW9       29.96S WCI  -9
ALLIANCE       CLOUDY    -7 -11  83 W10       29.92F WCI -25
SCOTTSBLUFF    CLOUDY    -1  -5  82 NW9       29.97S WCI -16
SIDNEY         CLEAR     11   4  73 W13       29.95S WCI  -4

...WESTERN AND NORTH CENTRAL NEBRASKA...

CITY           SKY/WX    TMP DP  RH WIND       PRES   REMARKS
VALENTINE      CLOUDY    -1  -5  82 W7        29.98F WCI -14
AINSWORTH      CLOUDY     9   7  89 SW9       29.98F WCI  -4
ONEILL         CLOUDY     7   6  92 SW5       30.05S WCI  -1
BROKEN BOW     CLOUDY     5   2  87 CALM      30.04S
IMPERIAL       CLEAR     11   8  88 SW6       30.02S WCI   1
NORTH PLATTE   CLOUDY     4   1  88 E3        30.04S FOG
MCCOOK         CLEAR      9   8  96 SW6       30.08F WCI  -1

...EASTERN NEBRASKA...

CITY           SKY/WX    TMP DP  RH WIND       PRES   REMARKS
NORFOLK        CLOUDY    10   5  80 VRB6      30.08S WCI   0
SO SIOUX CITY  MOCLDY    13  10  88 NW3       30.10R
TEKAMAH        CLEAR     13   9  84 CALM      30.12R
COLUMBUS       CLOUDY    12   5  73 W5        30.12R WCI   4
ALBION         CLOUDY     7   2  81 CALM      30.09S
OMAHA EPPLEY   CLOUDY    18  12  77 W6        30.13R WCI  10
OFFUTT AFB     CLOUDY    16  10  79 VRB6      30.13R WCI   7
MILLARD        CLOUDY    20  15  79 NW7       30.13S WCI  12
LINCOLN        CLOUDY    16  10  77 SW3       30.16R
NEBRASKA CITY  CLOUDY    18  12  77 W9        30.13R WCI   7
BEATRICE       CLOUDY    18  14  82 W7        30.15R WCI   9
FALLS CITY     CLEAR     20  14  77 W10       30.15R WCI   9

...NORTHERN KANSAS...

CITY           SKY/WX    TMP DP  RH WIND       PRES   REMARKS
GOODLAND       CLOUDY    21  17  84 SW14      30.02F WCI   8
HILL CITY      CLOUDY    13   9  84 W6        30.14S WCI   4
PHILLIPSBURG   CLEAR     12   9  85 CALM      30.16R
SMITH CENTER   CLEAR      9   7  92 SW6       30.17R WCI  -1
HAYS           CLOUDY    13   9  84 W6        30.17S WCI   4
RUSSELL        CLEAR     11   7  84 SW6       30.16S WCI   1
CONCORDIA      CLEAR     16  11  80 W7        30.17R WCI   6
SALINA         CLEAR     20  13  74 W3        30.20R
TOPEKA         SUNNY     22  18  85 W12       30.19R WCI  10



USA.gov is the U.S. government's official web portal to all federal, state and local government web resources and services.